Location: Ferchesar
(52.6477°N, 12.4298°E)
Time: 08:42:00
(UTC+02:00)

N. Korean satellite - Visible Passes

Search period start: 04 October 2022 00:00
Search period end: 14 October 2022 00:00
Orbit: 426 x 468 km, 97.3° (Epoch: 03 October)

Date Brightness Start Highest point End Pass type
(mag) Time Alt. Az. Time Alt. Az. Time Alt. Az.
04 Oct 6.6 06:34:58 10° NNE 06:38:15 75° ESE 06:41:30 10° S visible
05 Oct 8.7 05:59:18 10° NE 06:02:10 27° E 06:05:00 10° SSE visible
06 Oct 9.9 05:24:40 10° ENE 05:25:51 11° E 05:27:02 10° ESE visible
07 Oct 7.5 06:19:39 10° NNE 06:22:51 47° E 06:26:01 10° S visible
08 Oct 9.4 05:44:07 10° NE 05:46:31 19° E 05:48:55 10° SE visible
09 Oct 6.4 06:39:56 10° NNE 06:43:14 86° ESE 06:46:31 10° SSW visible
10 Oct 8.4 06:03:56 10° NNE 06:06:54 31° E 06:09:51 10° SSE visible
11 Oct 9.8 05:28:44 10° ENE 05:30:20 13° E 05:31:55 10° ESE visible
12 Oct 7.2 06:23:45 10° NNE 06:26:59 53° E 06:30:13 10° S visible
13 Oct 9.2 05:47:51 10° NE 05:50:24 21° E 05:52:58 10° SE visible
